Isunngua v. Kangerlussuaq

KL  EN  DA
ASIAQ
Weather Now GREENLAND SURVEY
Updated [WGT/WGST] Temperature [°C] Wind [m/s] Air pressure [hPa] Relative humidity [%] Precipitation [mm]
Present Wind chill Speed Max
27.09 02:00-11,80,00,6 ⇒n/a97966n/a
27.09 01:00-11,60,00,9 ⇘n/a97967n/a
27.09 00:00-11,90,00,7 ⇒n/a97969n/a
26.09 23:00-12,00,00,6 ⇒n/a97969n/a
26.09 22:00n/an/an/an/an/an/an/a
26.09 21:00-11,70,00,7 ⇗n/a97867n/a
26.09 20:00-11,90,01,1 ⇗n/a97866n/a
26.09 19:00-11,10,00,6 ⇗n/a97766n/a
26.09 18:00-9,80,00,7 ⇓n/a97762n/a
26.09 17:00-9,30,00,6 ⇑n/a97760n/a
26.09 16:00-8,80,00,7 ⇖n/a97756n/a
26.09 15:00-8,70,00,5 ⇑n/a97655n/a
26.09 14:00-9,70,01,2 ⇖n/a97757n/a
26.09 13:00-10,40,00,9 ⇑n/a97753n/a
26.09 12:00-10,90,01,0 ⇑n/a97753n/a
26.09 11:00-11,3-14,41,4 ⇐n/a97756n/a
26.09 10:00-12,30,01,2 ⇐n/a97758n/a
26.09 09:00-13,60,00,7 ⇗n/a97760n/a
26.09 08:00-14,00,00,5 ⇗n/a97765n/a
26.09 07:00-13,80,00,6 ⇒n/a97766n/a
26.09 06:00-14,10,00,4 ⇒n/a97767n/a
26.09 05:00-13,80,00,3 ⇒n/a97765n/a
26.09 04:00-13,50,00,5 ⇒n/a97765n/a
26.09 03:00-13,00,00,5 ⇗n/a97767n/a
26.09 02:00-12,60,00,6 ⇒n/a97767n/a
Position: (67.1252,-50.1832)

[Back]